Location: ?????
(55.6500°N, 37.2500°E)
Time: 01:48:43
(UTC+00:00)

Cosmos 1066 Rocket - Pass Details

Date: 19 May 2025
Orbit: 798 x 892 km, 81.2° (Epoch: 13 June)

Event Time Altitude Azimuth Distance (km) Brightness Sun altitude
Exits shadow 21:23:01 21° 184° (S) 1,820 5.3 -14.4°
Maximum altitude 21:26:53 78° 101° (ESE) 890 4.3 -14.4°
Drops below altitude 10° 21:32:41 10° 16° (NNE) 2,547 8.0 -14.4°
Sets 21:35:10 0° 16° (NNE) 3,499 9.1 -14.4°
